Location: Newark
(50.9000°N, 14.8333°E)
Time: 18:12:05
(UTC+00:00)

N. Korean satellite - Pass Details

Date: 28 October 2020
Orbit: 453 x 503 km, 97.2° (Epoch: 04 December)

Event Time Altitude Azimuth Distance (km) Brightness Sun altitude
Rises 04:55:40 0° 10° (N) 2,489 10.2 -8.5°
Reaches altitude 10° 04:57:44 10° 7° (N) 1,606 9.2 -8.2°
Maximum altitude 05:01:08 64° 286° (WNW) 510 6.4 -7.7°
Drops below altitude 10° 05:04:30 10° 205° (SSW) 1,588 9.1 -7.2°
Sets 05:06:32 0° 202° (SSW) 2,458 10.0 -6.8°
